Location: Newark
(12.4436°N, 0.6167°W)
Time: 16:13:26
(UTC+00:00)

Vanguard 2 - Pass Details

Date: 11 December 2019
Orbit: 553 x 2938 km, 32.9° (Epoch: 26 January)

Event Time Altitude Azimuth Distance (km) Brightness Sun altitude
Rises 10:41:39 0° 282° (WNW) 5,636 11.7 50.2°
Reaches altitude 10° 10:47:20 10° 266° (W) 4,123 11.2 50.8°
Maximum altitude 10:53:48 18° 228° (SW) 2,874 10.9 51.5°
Drops below altitude 10° 10:58:41 10° 186° (S) 2,956 11.2 51.9°
Sets 11:01:53 0° 167° (SSE) 3,574 11.6 52.2°
